[[{"header":{"parameterUnit":"m.s-1","parameterCategory":1,"la1":30.2991,"la2":30.254,"lo1":-89.0895,"lo2":-89.0444,"dy":0.0017,"dx":0.0017,"nx":28,"ny":28,"refTime":"2025-05-20T03:00:00:Z","depth":0,"parameterNumber":2,"parameterNumberName":"U-component_of_WINDS"},"data":[0,0,0,0,0,0,0,0,0,0,0,0,0,0,0,0,0,0,0,0,0,0,0,0,0,0,0,0,0,0,0,0,0,0,0,0,0,0,0,0,0,0,0,0,0,0,0,0,0,0,0,0,0,0,0,0,0,0,0.7364,0.7366,0,0.7521,0.7523,0.7525,0.7514,0.7511,0.7509,0.7507,0.7674,0.7681,0.7687,0,0,0,0,0,0,0,0,0,0,0,0,0,0.7061,0.7066,0.7364,0.7366,0.7368,0.7521,0.7523,0.7525,0.7514,0.7511,0.7508,0.7506,0.7672,0.768,0.7688,0,0,0,0,0,0,0,0,0,0,0,0,0,0.7203,0.7068,0.7363,0.7381,0.7384,0.752,0.7523,0.7526,0.7515,0.7511,0.7508,0.7504,0.7669,0.7679,0.7689,0.7821,0,0,0.7719,0.7724,0,0,0,0,0,0,0,0,0.7195,0.7214,0.7376,0.738,0.7383,0.7494,0.7477,0.7625,0.7516,0.7465,0.7507,0.7503,0.7618,0.7632,0.7669,0.7829,0.7836,0.772,0.7726,0.7731,0.7733,0,0,0,0,0,0,0,0.7185,0.7207,0.7426,0.7379,0.7383,0.7383,0.7399,0.7505,0.7559,0.7469,0.7469,0.7487,0.7619,0.7659,0.7673,0.7838,0.772,0.7729,0.7735,0.7739,0.8114,0.8118,0,0,0,0,0,0,0.717,0.7199,0.7421,0.7431,0.7278,0.7391,0.7409,0.7462,0.7558,0.7569,0.749,0.7486,0.7644,0.7661,0.7679,0.7839,0.773,0.774,0.7746,0.811,0.8115,0.812,0,0,0,0,0,0,0.7164,0.719,0.7415,0.7315,0.7343,0.74,0.746,0.7467,0.7507,0.7574,0.7584,0.7521,0.7642,0.7665,0.7785,0.7845,0.7744,0.7753,0.8106,0.8112,0.8117,0.8161,0,0,0,0,0,0,0.7155,0.7188,0.7237,0.7316,0.7349,0.7517,0.7463,0.7473,0.7524,0.752,0.7605,0.7616,0.7641,0.777,0.7795,0.7857,0.7761,0.8101,0.8108,0.8115,0.8154,0.8168,0.8179,0,0,0,0,0,0.7144,0.7244,0.7239,0.7266,0.7411,0.752,0.7539,0.7564,0.7529,0.7579,0.7622,0.7614,0.7834,0.7783,0.781,0.7876,0.8097,0.8106,0.8115,0.8149,0.8165,0.8179,0,0,0,0,0,0,0.7173,0.7255,0.725,0.7378,0.7442,0.7518,0.7583,0.758,0.7656,0.765,0.7679,0.7699,0.782,0.786,0.7801,0.8009,0.7961,0.7976,0.7978,0.7993,0.8005,0.7993,0.7769,0,0,0,0,0,0.7194,0.7273,0.7342,0.7448,0.748,0.7526,0.7575,0.7588,0.7656,0.7683,0.7735,0.7803,0.7888,0.7943,0.8025,0.816,0.8179,0.8219,0.8231,0.8241,0.8254,0.8329,0.8347,0.8149,0.8149,0.8149,0,0,0.7238,0.7293,0.7342,0.7455,0.7506,0.759,0.7549,0.7639,0.7702,0.7698,0.7814,0.7854,0.7933,0.8061,0.812,0.8098,0.8313,0.8253,0.826,0.8267,0.834,0.8359,0.8375,0.8155,0.8154,0.8153,0,0,0.7362,0.7411,0.7505,0.7556,0.7633,0.7663,0.7686,0.7763,0.7788,0.7905,0.7903,0.798,0.8125,0.8181,0.8228,0.8373,0.8369,0.84,0.8464,0.8536,0.8552,0.8566,0.8618,0.8636,0.8412,0.8412,0.8412,0,0.7408,0.7532,0.7554,0.7645,0.7695,0.7693,0.779,0.784,0.794,0.7976,0.795,0.8131,0.8184,0.8326,0.8361,0.8399,0.8427,0.839,0.8547,0.8562,0.8575,0.8625,0.8644,0.8415,0.8415,0.8415,0.8414,0,0.7585,0.7671,0.7738,0.7833,0.7891,0.7985,0.8023,0.808,0.8088,0.8121,0.8241,0.8304,0.8398,0.8433,0.8443,0.8576,0.856,0.8541,0.8493,0.8597,0.8644,0.8663,0.842,0.8419,0.8418,0.8417,0,0,0.773,0.7835,0.786,0.7903,0.7988,0.8056,0.815,0.824,0.8288,0.8359,0.8439,0.8562,0.8544,0.8598,0.8614,0.8678,0.8789,0.8651,0.8653,0.8674,0.894,0.8954,0.8975,0.8787,0.8791,0.8794,0.8934,0,0.7862,0.8025,0.8049,0.8194,0.8275,0.8275,0.8357,0.8419,0.8453,0.8528,0.8567,0.8653,0.8623,0.8655,0.8719,0.8762,0.8843,0.8753,0.8863,0.8867,0.8842,0.9,0.9015,0.9144,0.8952,0.8955,0.8958,0,0.8037,0.8109,0.8262,0.8336,0.8371,0.8444,0.8529,0.86,0.8671,0.8692,0.8752,0.876,0.886,0.8809,0.8947,0.8885,0.8932,0.896,0.8966,0.8976,0.8918,0.9015,0.9186,0.9205,0.8987,0.8985,0.8983,0,0.8126,0.8263,0.8372,0.8409,0.8498,0.855,0.859,0.8657,0.871,0.8785,0.882,0.8906,0.8954,0.9021,0.9054,0.9014,0.919,0.9142,0.9211,0.921,0.9247,0.9244,0.9427,0.9278,0.9278,0.9278,0.9277,0,0.827,0.8364,0.8413,0.848,0.8586,0.8613,0.8717,0.8756,0.8816,0.8892,0.8899,0.897,0.9009,0.9087,0.9114,0.9224,0.9246,0.9266,0.9272,0.9265,0.9262,0.9296,0.9287,0.9283,0.9282,0.9281,0.928,0,0.8388,0.8424,0.8543,0.8618,0.8639,0.8714,0.8778,0.8845,0.8878,0.8974,0.8999,0.9052,0.9144,0.9183,0.9298,0.9316,0.9442,0.9441,0.9417,0.9419,0.9485,0.9478,0.9695,0.9725,0.9557,0.9559,0.956,0,0.8477,0.8549,0.8631,0.8681,0.8722,0.8803,0.8857,0.8887,0.8943,0.903,0.9086,0.9178,0.9252,0.94,0.945,0.9538,0.9539,0.961,0.9553,0.9543,0.954,0.9535,0.9542,0.962,0.9621,0.9623,0.9624,0,0.8631,0.8645,0.8721,0.8804,0.8867,0.8934,0.9,0.9041,0.9082,0.9145,0.9238,0.9296,0.9411,0.9503,0.9593,0.9637,0.9638,0.9642,0.9662,0.9655,0.9638,0.9648,0.9444,0.9636,0.9635,0.9634,0.9633,0.9633,0.8737,0.88,0.8868,0.8952,0.9004,0.9066,0.9131,0.9173,0.925,0.9345,0.9359,0.9459,0.953,0.9651,0.9698,0.9778,0.976,0.979,0.9798,0.9804,0.9808,0.9626,0.9795,0.9794,0.9794,0.9794,0.9794,0,0.889,0.8933,0.9011,0.9101,0.9169,0.9162,0.9235,0.9291,0.9378,0.9444,0.9517,0.9624,0.9713,0.977,0.986,0.9913,0.9916,0.9936,0.9932,0.9942,0.9819,0.9792,0.9932,0.9932,0.9932,0.9932,0.9932,0.9932,0.8978,0.9085,0.9108,0.9242,0.9285,0.9381,0.9423,0.948,0.9532,0.9651,0.9724,0.9761,0.9823,0.9918,1.0,1.0014,1.0047,1.0068,1.0082,0.9965,0.9951,0.9937,0.9912,1.0075,1.0075,1.0198,1.0199,1.02]},{"header":{"parameterUnit":"m.s-1","parameterCategory":1,"la1":30.2991,"la2":30.254,"lo1":-89.0895,"lo2":-89.0444,"dy":0.0017,"dx":0.0017,"nx":28,"ny":28,"refTime":"2025-05-20T03:00:00:Z","depth":0,"parameterNumber":3,"parameterNumberName":"V-component_of_WINDS"},"data":[0,0,0,0,0,0,0,0,0,0,0,0,0,0,0,0,0,0,0,0,0,0,0,0,0,0,0,0,0,0,0,0,0,0,0,0,0,0,0,0,0,0,0,0,0,0,0,0,0,0,0,0,0,0,0,0,0,0,0.9388,0.9388,0,0.9392,0.9392,0.9392,0.9329,0.9328,0.9326,0.9324,0.9331,0.9333,0.9335,0,0,0,0,0,0,0,0,0,0,0,0,0,0.9328,0.9329,0.9388,0.9388,0.9388,0.9392,0.9392,0.9392,0.933,0.9327,0.9325,0.9323,0.9331,0.9333,0.9335,0,0,0,0,0,0,0,0,0,0,0,0,0,0.9345,0.933,0.9388,0.9357,0.9355,0.9392,0.9392,0.9392,0.933,0.9327,0.9325,0.9322,0.933,0.9332,0.9335,0.9403,0,0,0.9343,0.9344,0,0,0,0,0,0,0,0,0.9344,0.9347,0.9362,0.9359,0.9356,0.9357,0.9373,0.9396,0.9331,0.9339,0.9324,0.9321,0.9342,0.9344,0.935,0.9403,0.9403,0.9343,0.9345,0.9346,0.9347,0,0,0,0,0,0,0,0.9343,0.9347,0.9389,0.9362,0.9359,0.9344,0.9343,0.9377,0.9355,0.9338,0.9334,0.9335,0.934,0.9348,0.935,0.9403,0.9343,0.9346,0.9347,0.9348,0.9509,0.9512,0,0,0,0,0,0,0.9346,0.9346,0.9389,0.939,0.9344,0.9347,0.9346,0.936,0.9355,0.9351,0.9337,0.9332,0.9344,0.9347,0.935,0.9427,0.9346,0.9349,0.935,0.9507,0.951,0.9513,0,0,0,0,0,0,0.9345,0.935,0.9389,0.9367,0.937,0.9351,0.9366,0.9361,0.9368,0.9354,0.935,0.9349,0.9342,0.9346,0.9389,0.9426,0.935,0.9352,0.9504,0.9508,0.9511,0.9582,0,0,0,0,0,0,0.9343,0.935,0.9376,0.9368,0.9372,0.9429,0.9368,0.9363,0.9373,0.9366,0.9363,0.936,0.9341,0.9386,0.9392,0.9428,0.9354,0.95,0.9505,0.951,0.9577,0.9588,0.9598,0,0,0,0,0,0.9341,0.9397,0.9377,0.9383,0.9403,0.9431,0.9433,0.9409,0.9376,0.9401,0.9391,0.9361,0.9421,0.9391,0.9397,0.9435,0.9498,0.9504,0.951,0.9572,0.9586,0.9598,0,0,0,0,0,0,0.9411,0.9395,0.9373,0.9428,0.9431,0.942,0.9451,0.9425,0.9438,0.9432,0.9401,0.9401,0.9449,0.9446,0.9412,0.9499,0.9454,0.9461,0.9499,0.9512,0.9523,0.9522,0.9357,0,0,0,0,0,0.9433,0.9456,0.9441,0.949,0.9493,0.9472,0.9483,0.9463,0.9466,0.9467,0.9461,0.9465,0.9484,0.9498,0.9516,0.9576,0.9574,0.9605,0.9616,0.9625,0.9632,0.9661,0.9675,0.9533,0.9533,0.9532,0,0,0.9478,0.9472,0.9489,0.9504,0.9504,0.9529,0.9474,0.9503,0.952,0.9472,0.9511,0.9507,0.9509,0.9561,0.9583,0.956,0.967,0.9633,0.964,0.9642,0.9669,0.9682,0.9694,0.9537,0.9536,0.9535,0,0,0.9572,0.9571,0.961,0.9611,0.9611,0.9596,0.9606,0.9599,0.9593,0.9632,0.9595,0.9617,0.9652,0.9654,0.966,0.9753,0.9725,0.976,0.9816,0.9846,0.9857,0.9867,0.9898,0.991,0.9767,0.9767,0.9767,0,0.9629,0.9664,0.9635,0.9665,0.9672,0.9628,0.9667,0.967,0.9677,0.9683,0.9657,0.9698,0.9697,0.9747,0.9769,0.9776,0.9785,0.976,0.9857,0.9867,0.9876,0.9905,0.9918,0.9771,0.9771,0.977,0.977,0,0.9732,0.9757,0.9789,0.9794,0.9805,0.984,0.9816,0.9831,0.981,0.9798,0.9838,0.9834,0.9849,0.986,0.9841,0.9907,0.9892,0.9863,0.9816,0.9894,0.9921,0.9933,0.9777,0.9776,0.9774,0.9773,0,0,0.9872,0.9858,0.9871,0.9871,0.9867,0.9886,0.9919,0.9932,0.9944,0.995,0.9976,1.0005,0.9977,0.9984,0.9964,0.999,1.0061,0.9956,0.9956,0.9975,1.0132,1.0154,1.0168,1.0043,1.0045,1.0046,1.0132,0,0.9962,1.0016,0.999,1.0047,1.0068,1.0025,1.0054,1.0054,1.0044,1.0061,1.0049,1.007,1.0032,1.0035,1.0059,1.0048,1.0093,1.0041,1.0066,1.0067,1.0066,1.0183,1.0206,1.0287,1.0142,1.0144,1.0146,0,1.0075,1.0083,1.0142,1.0131,1.0139,1.0165,1.0174,1.0191,1.019,1.018,1.0187,1.0161,1.0192,1.0146,1.0188,1.0153,1.0162,1.0158,1.016,1.0161,1.0111,1.0186,1.0313,1.0324,1.0163,1.0161,1.016,0,1.0169,1.0195,1.0232,1.0235,1.0224,1.0243,1.0239,1.0236,1.0245,1.0253,1.0258,1.027,1.0277,1.0286,1.0264,1.0233,1.0308,1.0261,1.0301,1.0301,1.0318,1.0318,1.0447,1.0326,1.0326,1.0325,1.0325,0,1.0273,1.031,1.0274,1.0298,1.0338,1.0307,1.0348,1.034,1.0337,1.0357,1.0322,1.0342,1.0312,1.0329,1.0312,1.0348,1.0352,1.0345,1.0339,1.0347,1.0348,1.0352,1.0346,1.0328,1.0328,1.0327,1.0327,0,1.0385,1.0362,1.04,1.0386,1.0383,1.0413,1.0401,1.0422,1.0408,1.0434,1.0439,1.0418,1.0436,1.0414,1.0432,1.042,1.0469,1.0456,1.0469,1.0464,1.0505,1.0501,1.0641,1.0657,1.0526,1.0528,1.0529,0,1.0452,1.0479,1.0466,1.0477,1.0475,1.0493,1.0501,1.0471,1.0481,1.0481,1.0502,1.0517,1.0527,1.0558,1.0545,1.0557,1.0544,1.0592,1.0546,1.0552,1.0543,1.0541,1.0543,1.0602,1.0603,1.0604,1.0605,0,1.0572,1.0559,1.0571,1.0579,1.0589,1.0595,1.0598,1.0608,1.0578,1.059,1.0608,1.0616,1.0632,1.0647,1.0655,1.0652,1.0624,1.062,1.0629,1.0638,1.0643,1.0639,1.0493,1.0617,1.0616,1.0615,1.0614,1.0614,1.0663,1.0684,1.0678,1.0692,1.0691,1.0693,1.0711,1.0699,1.0712,1.0722,1.0704,1.0726,1.0722,1.073,1.073,1.0746,1.0726,1.074,1.0744,1.0747,1.0753,1.0641,1.0748,1.0748,1.0747,1.0747,1.0747,0,1.0781,1.0774,1.0787,1.0791,1.0802,1.0772,1.0773,1.0785,1.0804,1.0803,1.0813,1.0832,1.0846,1.0832,1.0843,1.0859,1.0846,1.0863,1.0861,1.086,1.0771,1.0761,1.0873,1.0873,1.0873,1.0873,1.0873,1.0873,1.0843,1.0877,1.0863,1.0895,1.0888,1.0908,1.091,1.0912,1.0911,1.0933,1.0944,1.0934,1.0928,1.0938,1.0949,1.0945,1.095,1.0971,1.0962,1.0879,1.0867,1.0855,1.0845,1.0973,1.0973,1.105,1.1051,1.1051]}]]